CW8081 Thessaloniki GR current weather conditions

sailwx.info

Wind from 220 at 3 knots gusting 8

Air temperature 28.3° C
Dewpoint 15.6° C

Last reported at 2017-Aug-23 15:01 UTC.
Time now 2017-Aug-23 15:48 UTC

Location: N 40°34' E 022°58'.
View on Google Maps.

See reports from other nearby stations

  
Tides and Currents Weather Stations Pressure Air Temp Water Temp Dewpoint Dewpoint Depression Visibility Wind Speed Wind Dir Waves Ship Positions
date/time (UTC)wind fromknots sea level pressurealtimeterstation pressurevisibilityair tempwater tempwave heightnotes
2017-Aug-23 15:01 220 3 gusting 8 28.3
2017-Aug-23 14:46 238 5 gusting 6 28.3
2017-Aug-23 14:31 241 5 gusting 7 28.3
2017-Aug-23 14:16 214 5 gusting 8 28.9
2017-Aug-23 14:11 252 2 gusting 7 28.9
2017-Aug-23 14:06 209 5 gusting 7 28.9
2017-Aug-23 14:01 215 5 gusting 10 28.9
2017-Aug-23 13:46 214 6 gusting 10 28.3
2017-Aug-23 13:41 228 6 gusting 8 28.9
2017-Aug-23 13:16 249 5 gusting 6 28.9
2017-Aug-23 13:11 260 5 gusting 8 28.9
2017-Aug-23 13:06 259 6 gusting 8 28.9
2017-Aug-23 13:01 209 6 gusting 8 28.9
2017-Aug-23 12:46 257 5 gusting 8 28.3
2017-Aug-23 12:41 266 5 gusting 8 28.3
2017-Aug-23 12:36 228 6 gusting 7 28.3
2017-Aug-23 12:16 241 6 gusting 10 28.3
2017-Aug-23 12:11 239 5 gusting 8 28.3
2017-Aug-23 12:06 243 6 gusting 8 28.3
2017-Aug-23 12:01 238 5 gusting 10 28.3
2017-Aug-23 11:41 227 5 gusting 10 27.8
2017-Aug-23 11:31 250 6 gusting 10 27.8
2017-Aug-23 11:16 227 6 gusting 10 27.2
2017-Aug-23 11:06 234 6 gusting 10 26.7
2017-Aug-23 10:46 224 6 gusting 12 26.7
2017-Aug-23 10:36 270 6 gusting 11 26.7
2017-Aug-23 10:16 237 8 gusting 11 26.7
2017-Aug-23 10:01 247 8 gusting 13 26.7
2017-Aug-23 09:46 258 6 gusting 12 26.7
2017-Aug-23 09:41 258 5 gusting 10 26.1
2017-Aug-23 09:31 251 7 gusting 10 26.1
2017-Aug-23 09:16 273 6 gusting 10 26.1
2017-Aug-23 09:11 240 6 gusting 10 26.1
2017-Aug-23 09:06 254 7 gusting 10 26.1
2017-Aug-23 09:01 255 6 gusting 11 25.6
2017-Aug-23 08:46 266 5 gusting 10 25.6
2017-Aug-23 08:41 248 6 gusting 11 25.6
2017-Aug-23 08:36 329 3 gusting 7 25.0
2017-Aug-23 08:16 256 5 gusting 8 25.0
2017-Aug-23 08:11 276 4 gusting 7 24.4
2017-Aug-23 08:06 268 4 gusting 10 24.4
2017-Aug-23 08:01 270 4 gusting 11 24.4
2017-Aug-23 07:41 305 5 gusting 7 23.9
2017-Aug-23 07:31 333 4 gusting 8 23.9
2017-Aug-23 07:11 301 4 gusting 6 23.3
2017-Aug-23 07:06 328 2 gusting 6 23.3
2017-Aug-23 07:01 206 22.8
2017-Aug-23 06:46 199 2 gusting 4 22.2
2017-Aug-23 06:41 196 0 gusting 4 22.2
2017-Aug-23 06:36 196 21.7
2017-Aug-23 06:11 161 21.1
2017-Aug-23 06:06 152 21.1
2017-Aug-23 05:41 144 20.0
2017-Aug-23 05:36 144 20.0
2017-Aug-23 05:31 144 19.4
2017-Aug-23 05:16 144 19.4
2017-Aug-23 05:11 144 18.9
2017-Aug-23 05:06 144 18.9
2017-Aug-23 05:01 144 18.9
2017-Aug-23 04:46 143 18.9
2017-Aug-23 04:41 142 18.9
2017-Aug-23 04:36 142 18.3
2017-Aug-23 04:31 142 18.3
2017-Aug-23 04:01 142 18.3
2017-Aug-23 03:46 142 18.9
2017-Aug-23 03:41 142 18.9
2017-Aug-23 03:36 142 18.9
2017-Aug-23 03:31 142 18.9
2017-Aug-23 03:16 142 18.9
2017-Aug-23 03:11 142 18.9
2017-Aug-23 03:06 142 18.9
2017-Aug-23 02:41 142 18.9
2017-Aug-23 02:16 142 18.9
2017-Aug-23 02:06 142 18.9
2017-Aug-23 02:01 142 18.9
2017-Aug-23 01:46 142 18.9
2017-Aug-23 01:41 142 18.9
2017-Aug-23 01:16 142 18.9
2017-Aug-23 01:11 142 18.9
2017-Aug-23 01:06 142 18.9
2017-Aug-23 01:01 142 18.9
2017-Aug-23 00:41 142 18.9
2017-Aug-23 00:36 142 18.9
2017-Aug-23 00:31 142 18.9
2017-Aug-23 00:16 142 19.4
2017-Aug-23 00:11 142 19.4
2017-Aug-23 00:01 142 20.0
2017-Aug-22 23:41 142 20.0
2017-Aug-22 23:36 142 20.0
2017-Aug-22 23:06 141 20.6
2017-Aug-22 23:01 141 20.6
2017-Aug-22 22:46 137 21.1
2017-Aug-22 22:41 137 0 gusting 2 21.1
2017-Aug-22 22:31 101 0 gusting 2 21.1
2017-Aug-22 22:16 065 21.7
2017-Aug-22 22:11 065 21.7
2017-Aug-22 22:06 065 21.7
2017-Aug-22 22:01 065 21.7
2017-Aug-22 21:41 065 21.7
2017-Aug-22 21:36 065 21.7
2017-Aug-22 21:16 065 22.8
2017-Aug-22 21:11 065 22.8
2017-Aug-22 21:06 065 22.8
2017-Aug-22 20:41 018 23.3
2017-Aug-22 20:36 018 23.3
2017-Aug-22 20:31 018 0 gusting 2 23.3
2017-Aug-22 20:16 017 0 gusting 2 23.9
2017-Aug-22 20:11 016 0 gusting 1 23.9
2017-Aug-22 20:06 015 1 gusting 4 24.4
2017-Aug-22 20:01 019 4 gusting 8 24.4
2017-Aug-22 19:46 023 3 gusting 7 24.4
2017-Aug-22 19:31 023 3 gusting 7 25.0
2017-Aug-22 19:11 049 4 gusting 8 25.0
2017-Aug-22 19:01 028 6 gusting 13 25.6
2017-Aug-22 18:46 014 6 gusting 11 25.6
2017-Aug-22 18:31 002 6 gusting 11 25.6
2017-Aug-22 18:16 024 3 gusting 6 26.1
2017-Aug-22 18:06 025 6 gusting 10 26.1
2017-Aug-22 17:46 349 5 gusting 10 26.7
2017-Aug-22 17:41 011 6 gusting 11 26.7
2017-Aug-22 17:31 004 5 gusting 13 26.7
2017-Aug-22 17:16 349 6 gusting 10 27.2
2017-Aug-22 17:11 007 5 gusting 8 27.2
2017-Aug-22 16:46 334 5 gusting 8 27.8
2017-Aug-22 16:41 332 4 gusting 7 27.8
2017-Aug-22 16:16 329 5 gusting 11 28.3
2017-Aug-22 16:11 310 5 gusting 10 28.3
2017-Aug-22 16:06 336 4 gusting 10 28.3
2017-Aug-22 16:01 338 1 gusting 8 28.3
2017-Aug-22 15:46 307 3 gusting 8 28.3
2017-Aug-22 15:41 301 5 gusting 10 28.3
2017-Aug-22 15:36 317 5 gusting 10 28.3
2017-Aug-22 15:31 308 2 gusting 12 28.3
2017-Aug-22 15:16 295 4 gusting 10 28.3
2017-Aug-22 15:11 315 5 gusting 12 28.3
2017-Aug-22 15:01 275 5 gusting 10 28.3
2017-Aug-22 14:46 291 5 gusting 10 28.3
2017-Aug-22 14:11 252 5 gusting 7 28.3
2017-Aug-22 14:06 268 6 gusting 10 28.9
2017-Aug-22 13:46 255 6 gusting 12 28.9
2017-Aug-22 13:41 274 6 gusting 10 28.9
2017-Aug-22 13:36 263 6 gusting 11 28.9
2017-Aug-22 13:16 276 6 gusting 10 28.9
2017-Aug-22 13:06 276 6 gusting 12 28.9
2017-Aug-22 13:01 252 4 gusting 11 28.9
2017-Aug-22 12:46 246 5 gusting 12 28.9
2017-Aug-22 12:41 271 4 gusting 10 28.3
2017-Aug-22 12:36 274 5 gusting 10 28.3
2017-Aug-22 12:31 270 3 gusting 12 28.3
2017-Aug-22 12:16 251 6 gusting 10 28.3
2017-Aug-22 11:41 278 4 gusting 17 27.8
2017-Aug-22 11:36 306 5 gusting 11 27.8
2017-Aug-22 11:31 294 5 gusting 13 27.8
2017-Aug-22 11:16 313 5 gusting 10 27.2
2017-Aug-22 11:11 296 5 gusting 12 27.2
2017-Aug-22 11:06 284 4 gusting 8 26.7
2017-Aug-22 11:01 331 6 gusting 12 26.7
2017-Aug-22 10:46 292 6 gusting 10 26.7
2017-Aug-22 10:36 358 6 gusting 12 26.1
2017-Aug-22 10:31 327 8 gusting 17 26.1
2017-Aug-22 10:11 291 4 gusting 12 25.6
2017-Aug-22 10:06 341 6 gusting 13 25.6
2017-Aug-22 09:41 339 8 gusting 15 25.0
2017-Aug-22 09:36 351 3 gusting 13 25.0
2017-Aug-22 09:31 008 7 gusting 18 25.0
2017-Aug-22 09:16 341 7 gusting 13 24.4
2017-Aug-22 09:11 342 8 gusting 15 24.4
2017-Aug-22 09:06 346 10 gusting 17 24.4
2017-Aug-22 09:01 342 6 gusting 17 23.9
2017-Aug-22 08:41 341 9 gusting 13 23.9
2017-Aug-22 08:36 354 10 gusting 15 23.3
2017-Aug-22 08:31 337 6 gusting 18 23.3
2017-Aug-22 08:16 344 6 gusting 13 23.3
2017-Aug-22 08:06 019 8 gusting 19 23.3
2017-Aug-22 08:01 337 6 gusting 19 22.8
2017-Aug-22 07:46 338 9 gusting 21 22.8
2017-Aug-22 07:41 345 11 gusting 15 22.8
2017-Aug-22 07:31 023 6 gusting 17 22.8
2017-Aug-22 07:16 009 11 gusting 19 22.2
2017-Aug-22 07:06 006 11 gusting 19 21.7
2017-Aug-22 07:01 001 11 gusting 19 21.7
2017-Aug-22 06:46 21.7
2017-Aug-22 06:41 001 7 gusting 17 21.7
2017-Aug-22 06:31 004 11 gusting 21 21.7
2017-Aug-22 06:16 21.1
2017-Aug-22 06:01 343 10 gusting 20 20.6
2017-Aug-22 05:46 20.6
2017-Aug-22 05:41 356 8 gusting 15 20.6
2017-Aug-22 05:31 016 8 gusting 17 20.6
2017-Aug-22 05:16 015 7 gusting 15 20.0
2017-Aug-22 05:11 329 7 gusting 13 20.0
2017-Aug-22 05:06 003 8 gusting 19 20.0
2017-Aug-22 05:01 003 10 gusting 18 20.0
2017-Aug-22 04:46 20.0
2017-Aug-22 04:41 003 13 gusting 19 20.0
2017-Aug-22 04:36 012 7 gusting 13 20.0
2017-Aug-22 04:31 008 9 gusting 18 20.0
2017-Aug-22 04:16 013 10 gusting 17 20.0
2017-Aug-22 04:11 015 10 gusting 17 20.0
2017-Aug-22 04:06 004 8 gusting 17 20.0
2017-Aug-22 04:01 002 9 gusting 19 20.0
2017-Aug-22 03:46 009 8 gusting 19 20.0
2017-Aug-22 03:31 353 10 gusting 19 20.0
2017-Aug-22 03:11 354 7 gusting 13 20.6
2017-Aug-22 03:01 358 11 gusting 21 20.6
2017-Aug-22 02:46 358 12 gusting 20 20.0
2017-Aug-22 02:41 358 8 gusting 20 20.6
2017-Aug-22 02:36 001 10 gusting 19 20.6
2017-Aug-22 02:31 008 13 gusting 21 20.6
2017-Aug-22 02:11 012 12 gusting 19 20.6
2017-Aug-22 02:06 008 11 gusting 17 20.6
2017-Aug-22 02:01 017 10 gusting 20 20.6
2017-Aug-22 01:46 018 10 gusting 19 20.6
2017-Aug-22 01:36 001 13 gusting 18 20.6
2017-Aug-22 01:16 20.6
2017-Aug-22 01:06 357 12 gusting 20 20.6
2017-Aug-22 01:01 006 7 gusting 19 20.6
2017-Aug-22 00:46 013 10 gusting 18 21.1
2017-Aug-22 00:41 035 7 gusting 15 21.1
2017-Aug-22 00:16 347 10 gusting 18 21.1
2017-Aug-22 00:06 002 12 gusting 17 21.1
2017-Aug-22 00:01 355 9 gusting 18 21.1
2017-Aug-21 23:41 356 6 gusting 17 21.7
2017-Aug-21 23:36 007 8 gusting 15 21.7
2017-Aug-21 23:16 003 10 gusting 17 21.7
2017-Aug-21 23:11 353 10 gusting 17 21.7
2017-Aug-21 23:06 002 12 gusting 19 21.7
2017-Aug-21 23:01 005 9 gusting 21 21.7
2017-Aug-21 22:46 006 9 gusting 15 21.7
2017-Aug-21 22:41 009 12 gusting 19 21.7
2017-Aug-21 22:36 21.7
2017-Aug-21 22:31 015 8 gusting 20 21.7
2017-Aug-21 22:01 021 10 gusting 20 22.2
2017-Aug-21 21:46 007 11 gusting 17 22.2
2017-Aug-21 21:41 353 10 gusting 19 22.2
2017-Aug-21 21:31 004 12 gusting 19 22.2
2017-Aug-21 21:16 357 13 gusting 19 22.8
2017-Aug-21 21:11 015 10 gusting 17 22.8
2017-Aug-21 21:06 002 12 gusting 22 22.8
2017-Aug-21 21:01 006 12 gusting 19 22.8
2017-Aug-21 20:41 355 10 gusting 19 23.3
2017-Aug-21 20:36 007 8 gusting 15 23.3
2017-Aug-21 20:16 012 7 gusting 17 23.3
2017-Aug-21 20:11 009 9 gusting 17 23.3
2017-Aug-21 20:06 017 7 gusting 17 23.3
2017-Aug-21 20:01 021 8 gusting 18 23.3
2017-Aug-21 19:46 027 6 gusting 15 23.9
2017-Aug-21 19:41 019 10 gusting 17 23.9
2017-Aug-21 19:36 359 7 gusting 19 23.9
2017-Aug-21 19:11 346 7 gusting 13 24.4
2017-Aug-21 19:01 352 5 gusting 22 24.4
2017-Aug-21 18:46 008 7 gusting 17 24.4
2017-Aug-21 18:41 006 8 gusting 15 24.4
2017-Aug-21 18:31 346 8 gusting 19 24.4
2017-Aug-21 18:16 337 8 gusting 13 24.4
2017-Aug-21 18:06 357 8 gusting 17 24.4
2017-Aug-21 18:01 355 9 gusting 21 24.4
2017-Aug-21 17:46 354 11 gusting 19 24.4
2017-Aug-21 17:41 346 11 gusting 17 24.4
2017-Aug-21 17:31 011 10 gusting 20 25.0
2017-Aug-21 17:06 335 11 gusting 20 25.0
2017-Aug-21 16:36 333 7 gusting 18 25.6
2017-Aug-21 16:31 329 9 gusting 20 25.6
2017-Aug-21 16:16 333 9 gusting 19 25.6
2017-Aug-21 16:11 335 13 gusting 21 26.1
2017-Aug-21 15:31 336 12 gusting 21 26.7
2017-Aug-21 15:11 358 14 gusting 21 27.2
2017-Aug-21 15:01 340 13 gusting 20 27.2